STARLINK-33563, 62284

Orbit data source: Space-Track

STARLINK-33563, 62284 is a payload satellite owned by SpaceX/Seattle (US) in LEO that was launched on Sun, 08 Dec 2024 UTC via an FALCON 9 launch vehicle from the Air Force Eastern Test Range (AFETR). Payload-class satellites include a variety of spacecraft equipped with specific instruments for various scientific and technological missions. These include communications satellites like Starlink; space stations such as the ISS; scientific satellites like the Hubble; Earth observation satellites from companies like Planet Labs, Umbra, and HawkEye 360; GPS; miniature CubeSats for education and research; and military/defense satellites.

Loading next visibility...
Identifier
62284, 2024-237T
Orbit
LEO
Country
Flag of USUS
Related business
Manufacturer
SpaceX/Seattle
Mission
Operational Commercial Communications
Bus & Motor
STARLINK V2MO, Unknown motor
Mass
530 kg wet, ~500 kg dry
Launch date (UTC)
2024-12-08 (2 years ago)
Launch vehicle
FALCON 9
Launch site
Air Force Eastern Test Range (AFETR)
Object type
Payload
Rocket body
Debris
Shape & HBR
Box + 2 Pan, 17.7 m
Radar Cross Section
36.964 m², Large (>1 m²)

Expand to show TLE details & history
Last TLE update: 1 day ago

TLE from 1 day ago
0 STARLINK-33563
1 62284U 24237T   26170.57913049  .00023247  00000-0  85146-3 0  9999
2 62284  43.0030   1.0223 0001265 256.9807 103.0904 15.27586648 86770
Epoch: 2026-06-19T13:53Z
TLE epoch observation values (Epoch: 2026-06-19T13:53:56.874Z)
Latitude
0.00002°
Longitude
-115.27073°
Altitude
483.002 km
Speed
7.626 km/s
True Right ascension
00h 04m 05s
True Declination
0° 00' 00"
Sunlit
Object was in daylight at epoch
Visualization orbit readout
Latitude
Unknown
Longitude
Unknown
Altitude
Unknown
Speed
Unknown
Apparent Right ascension
Unknown
Apparent Declination
Unknown
Sunlit
N/A
Visualization observer readout
Local Sidereal Time
10:18:57
Azimuth
Unknown
Elevation
Unknown
Doppler factor
Unknown
Orbital elements
Apogee altitude
485.842 km
Perigee altitude
484.106 km
Semi-major axis
6,863.111 km
Eccentricity
0.00013
Inclination
43.003°
RAAN
1.0223°
Arg. of periapsis
256.9807°
True anomaly
103.10452°
Mean anomaly
103.0904°
Eccentric anomaly
103.09746°
Mean motion
3.81735 °/min
Orbital period
94.31 mins
BSTAR
0.00085146
Loading maneuver chart data...
Computing Atmospheric mass density...
Loading historical data...
Loading historical data...
Loading historical data...
Loading historical data...
Loading historical data...
Loading historical data...
Loading historical data...

Documentation

Showing up to 5 results
|